Flag for Bahamas Weather past 2 weeks in Nassau, Bahamas

Now
76 °F

Passing clouds.


Feels Like: 76 °F
Forecast: 74 / 85 °F
Wind: 3 mph from West

Location: Fort Lauderdale / Hollywood International Airport

Current Time: Apr 21, 2015 at 5:52:46 AM

Latest Report: Apr 21, 2015 at 4:53 AM


Visibility: 10 mi

Pressure: 29.91 "Hg

Humidity: 88%

Dew point: 72 °F

Location of NassauLocation

Historic Weather in Nassau — Graph

°F

Nassau temperature yesterday

Maximum temperature yesterday: 87 °F (at 12:53 PM)
Minimum temperature yesterday: 78 °F (at 5:53 PM)
Average temperature yesterday: 82 °F

Past Weeks' High & Low Weather Summary

 TemperatureHumidityPressure
High89 °F (Apr 18, 2:53 PM)94% (Apr 16, 8:02 AM)30.17 "Hg (Apr 16, 8:02 AM)
Low74 °F (Apr 6, 6:53 AM)48% (Apr 19, 3:53 PM)29.82 "Hg (Apr 20, 4:53 PM)
Average80 °F72%30.06 "Hg
* Reported Apr 6 3:53 AM — Apr 21 3:53 AM, Nassau, Weather by CustomWeather, © 2015

Note: Actual official high and low records may vary slightly from our data, if they occured in-between our weather recording intervals... More about our weather records

Advertising

Nassau weather history for previous 24 hours

 ConditionsComfort  
Time TempWeatherWind HumidityBarometerVisibility
3:53 AM
Tue, Apr 21
77 °FPassing clouds.No wind85%29.90 "Hg10 mi
2:53 AM78 °FPassing clouds.5 mph82%29.91 "Hg10 mi
1:53 AM79 °FPartly cloudy.3 mph79%29.92 "Hg10 mi
12:53 AM80 °FPassing clouds.5 mph76%29.93 "Hg10 mi
11:53 PM
Mon, Apr 20
81 °FPartly cloudy.8 mph72%29.94 "Hg10 mi
10:53 PM82 °FMostly cloudy.7 mph70%29.94 "Hg10 mi
9:53 PM82 °FMostly cloudy.7 mph67%29.93 "Hg10 mi
8:53 PM83 °FMostly cloudy.5 mph65%29.92 "Hg10 mi
7:53 PM84 °FMostly cloudy.6 mph65%29.90 "Hg10 mi
6:53 PM84 °FMostly cloudy.15 mph70%29.88 "Hg10 mi
5:53 PM78 °FCloudy.12 mph84%29.84 "Hg10 mi
4:53 PM85 °FLight rain. Cloudy.12 mph68%29.82 "Hg10 mi
3:53 PM87 °FOvercast.15 mph63%29.84 "Hg10 mi
2:53 PM85 °FMore clouds than sun.18 mph63%29.87 "Hg10 mi
1:53 PM84 °FLight rain. Broken clouds.17 mph70%29.91 "Hg10 mi
12:53 PM87 °FBroken clouds.16 mph63%29.92 "Hg10 mi
11:53 AM86 °FPartly sunny.17 mph67%29.93 "Hg10 mi
10:53 AM86 °FPartly sunny.14 mph70%29.95 "Hg10 mi
9:53 AM83 °FPartly sunny.7 mph72%29.94 "Hg10 mi
8:53 AM81 °FBroken clouds.9 mph79%29.93 "Hg10 mi
7:53 AM80 °FBroken clouds.7 mph81%29.92 "Hg10 mi
6:53 AM79 °FPassing clouds.5 mph84%29.91 "Hg10 mi
5:53 AM79 °FPassing clouds.3 mph82%29.90 "Hg10 mi
Weather by CustomWeather, © 2015

See weather overviewHow to use our weather pages